DECAYED

STARLINK-4099, 53146 (Decayed)

Orbit data source: Space-Track

STARLINK-4099, 53146 was a payload satellite owned by SpaceX/Seattle (US) in LEO that was launched on Sun, 17 Jul 2022 UTC via an FALCON 9 launch vehicle from the Air Force Eastern Test Range (AFETR). Payload-class satellites include a variety of spacecraft equipped with specific instruments for various scientific and technological missions. These include communications satellites like Starlink; space stations such as the ISS; scientific satellites like the Hubble; Earth observation satellites from companies like Planet Labs, Umbra, and HawkEye 360; GPS; miniature CubeSats for education and research; and military/defense satellites.

Not visible in the next 10 days
Identifier
53146, 2022-083Q
Orbit
Decayed
Country
Flag of USUS
Related business
Manufacturer
SpaceX/Seattle
Mission
Decayed Commercial Communications
Bus & Motor
STARLINK, Unknown motor
Mass
297 kg wet, ~275 kg dry
Launch date (UTC)
2022-07-17 (4 years ago)
Launch vehicle
FALCON 9
Launch site
Air Force Eastern Test Range (AFETR)
Object type
Payload
Rocket body
Debris
Shape & HBR
Box + 1 Pan, 10.1 m
Radar Cross Section
13.562 m², Large (>1 m²)

Expand to show TLE details & history
Last TLE update: 1 year ago

TLE from 1 year ago
0 STARLINK-4099
1 53146U 22083Q   25155.89806919  .10715945  12432-4  49849-3 0  9997
2 53146  53.2059 317.9990 0006128 272.3392 160.7177 16.42896532160224
Epoch: 2025-06-04T21:33Z
TLE epoch observation values (Epoch: 2025-06-04T21:33:13.178Z)
Latitude
50.16299°
Longitude
164.16453°
Altitude
167.704 km
Speed
7.81 km/s
True Right ascension
01h 24m 10s
True Declination
49° 58' 42"
Sunlit
Object was in daylight at epoch
Visualization orbit readout
Latitude
Unknown
Longitude
Unknown
Altitude
Unknown
Speed
Unknown
Apparent Right ascension
Unknown
Apparent Declination
Unknown
Sunlit
N/A
Visualization observer readout
Local Sidereal Time
21:28:33
Azimuth
Unknown
Elevation
Unknown
Doppler factor
Unknown
Orbital elements
Apogee altitude
162.375 km
Perigee altitude
154.364 km
Semi-major axis
6,536.506 km
Eccentricity
0.00061
Inclination
53.2059°
RAAN
317.999°
Arg. of periapsis
272.3392°
True anomaly
160.74087°
Mean anomaly
160.7177°
Eccentric anomaly
160.72929°
Mean motion
4.107 °/min
Orbital period
87.66 mins
BSTAR
0.00049849
Loading maneuver chart data...
Computing Atmospheric mass density...
Loading historical data...
Loading historical data...
Loading historical data...
Loading historical data...
Loading historical data...
Loading historical data...
Loading historical data...

Documentation

Showing up to 5 results
|